Location: Cluj-Napoca
(46.7712°N, 23.6236°E)
Time: 06:55:03
(UTC+03:00)

ISS - Pass Details

Date: 01 April 2020
Orbit: 417 x 423 km, 51.6° (Epoch: 29 March)

Event Time Altitude Azimuth Distance (km) Brightness Sun altitude
Rises 21:59:48 0° 294° (WNW) 2,362 1.6 -20.7°
Reaches altitude 10° 22:01:57 10° 287° (WNW) 1,496 0.1 -21.0°
Enters shadow 22:04:47 41° 235° (SW) 616 -2.8 -21.5°
